When you browse on this site, cookies collect data to enhance your experience and personalize the content and advertising you see.
Visit our Privacy Policy to learn more. By continuing to use the site, you agree to this use of cookies and data.
  • En España
  • Lista de países
  • Para 7 días
  • Temperatura del agua
  • El tiempo en el mapa
  • Informadores
  • user-avatar
    Iniciar sesión

    Tiempo cada hora Río Gallegos

    Hoy, 17 Octubre, Jueves

    Tiempo Temperatura Precipitaciones Viento Presión Humedad
    00:00 +9°C° 0 mm 5 mps 754 mmHg 68%
    01:00 +10°C° 0 mm 4 mps 754 mmHg 66%
    02:00 +8°C° 0 mm 4 mps 754 mmHg 63%
    03:00 +8°C° 0 mm 4 mps 754 mmHg 59%
    04:00 +8°C° 0 mm 4 mps 754 mmHg 56%
    05:00 +8°C° 0 mm 4 mps 754 mmHg 56%
    06:00 +10°C° 0 mm 4 mps 754 mmHg 56%
    07:00 +10°C° 0 mm 4 mps 755 mmHg 56%
    08:00 +10°C° 0 mm 5 mps 755 mmHg 56%
    09:00 +11°C° 0 mm 6 mps 755 mmHg 56%
    10:00 +11°C° 0 mm 8 mps 755 mmHg 57%
    11:00 +12°C° 0 mm 8 mps 755 mmHg 53%
    12:00 +12°C° 0 mm 8 mps 755 mmHg 49%
    13:00 +12°C° 0 mm 8 mps 755 mmHg 46%
    14:00 +12°C° 0 mm 7 mps 755 mmHg 46%
    15:00 +11°C° 0 mm 7 mps 755 mmHg 46%
    16:00 +11°C° 0 mm 6 mps 755 mmHg 46%
    17:00 +10°C° 0.1 mm 5 mps 755 mmHg 54%
    18:00 +10°C° 0.1 mm 3 mps 755 mmHg 61%
    19:00 +9°C° 0.1 mm 1 mps 755 mmHg 69%
    20:00 +7°C° 0.2 mm 4 mps 755 mmHg 74%
    21:00 +7°C° 0.2 mm 6 mps 755 mmHg 80%
    22:00 +5°C° 0.2 mm 8 mps 755 mmHg 85%
    23:00 +5°C° 0.1 mm 10 mps 755 mmHg 80%

    Mañana, 18 Octubre, Viernes

    Tiempo Temperatura Precipitaciones Viento Presión Humedad
    00:00 +4°C° 0.1 mm 11 mps 755 mmHg 75%
    01:00 +4°C° 0.1 mm 13 mps 756 mmHg 70%
    02:00 +3°C° 0 mm 12 mps 757 mmHg 70%
    03:00 +2°C° 0 mm 10 mps 757 mmHg 70%
    04:00 +2°C° 0 mm 9 mps 758 mmHg 70%
    05:00 +2°C° 0 mm 9 mps 758 mmHg 64%
    06:00 +4°C° 0 mm 8 mps 759 mmHg 59%
    07:00 +5°C° 0 mm 8 mps 759 mmHg 53%
    08:00 +5°C° 0 mm 7 mps 759 mmHg 54%
    09:00 +7°C° 0 mm 6 mps 759 mmHg 56%
    10:00 +7°C° 0 mm 5 mps 759 mmHg 57%
    11:00 +8°C° 0.1 mm 6 mps 758 mmHg 57%
    12:00 +9°C° 0.1 mm 6 mps 758 mmHg 57%
    13:00 +9°C° 0.1 mm 7 mps 757 mmHg 56%
    14:00 +9°C° 0 mm 7 mps 757 mmHg 58%
    15:00 +9°C° 0 mm 6 mps 756 mmHg 60%
    16:00 +9°C° 0 mm 6 mps 756 mmHg 61%
    17:00 +9°C° 0 mm 5 mps 756 mmHg 62%
    18:00 +10°C° 0 mm 4 mps 756 mmHg 63%
    19:00 +10°C° 0 mm 3 mps 755 mmHg 65%
    20:00 +10°C° 0 mm 4 mps 755 mmHg 64%
    21:00 +10°C° 0 mm 5 mps 755 mmHg 63%
    22:00 +10°C° 0 mm 5 mps 755 mmHg 62%
    23:00 +10°C° 0 mm 6 mps 754 mmHg 61%

    Pasado mañana, 19 Octubre, Sábado

    Tiempo Temperatura Precipitaciones Viento Presión Humedad
    00:00 +10°C° 0 mm 6 mps 754 mmHg 61%
    01:00 +10°C° 0 mm 7 mps 753 mmHg 60%
    02:00 +10°C° 0 mm 7 mps 753 mmHg 59%
    03:00 +10°C° 0 mm 7 mps 753 mmHg 58%
    04:00 +10°C° 0 mm 8 mps 753 mmHg 57%
    05:00 +11°C° 0 mm 8 mps 753 mmHg 54%
    06:00 +12°C° 0 mm 8 mps 752 mmHg 51%
    07:00 +13°C° 0 mm 9 mps 752 mmHg 47%
    08:00 +15°C° 0 mm 9 mps 752 mmHg 44%
    09:00 +16°C° 0 mm 10 mps 752 mmHg 40%
    10:00 +17°C° 0 mm 10 mps 751 mmHg 37%
    11:00 +18°C° 0 mm 10 mps 751 mmHg 34%
    12:00 +19°C° 0 mm 9 mps 750 mmHg 31%
    13:00 +19°C° 0 mm 9 mps 750 mmHg 28%
    14:00 +20°C° 0 mm 8 mps 750 mmHg 30%
    15:00 +18°C° 0 mm 7 mps 749 mmHg 31%
    16:00 +17°C° 0 mm 6 mps 749 mmHg 33%
    17:00 +17°C° 0 mm 6 mps 749 mmHg 33%
    18:00 +16°C° 0 mm 6 mps 749 mmHg 33%
    19:00 +15°C° 0 mm 5 mps 749 mmHg 33%
    20:00 +15°C° 0 mm 5 mps 749 mmHg 35%
    21:00 +14°C° 0 mm 5 mps 748 mmHg 37%
    22:00 +14°C° 0 mm 5 mps 748 mmHg 39%
    23:00 +13°C° 0 mm 4 mps 748 mmHg 40%

    20 Octubre, Domingo

    Tiempo Temperatura Precipitaciones Viento Presión Humedad
    00:00 +12°C° 0 mm 4 mps 748 mmHg 42%
    01:00 +12°C° 0 mm 4 mps 748 mmHg 44%
    02:00 +11°C° 0 mm 4 mps 748 mmHg 47%
    03:00 +10°C° 0 mm 4 mps 748 mmHg 51%
    04:00 +10°C° 0 mm 3 mps 749 mmHg 54%
    05:00 +10°C° 0 mm 3 mps 749 mmHg 57%
    06:00 +10°C° 0 mm 3 mps 749 mmHg 61%
    07:00 +11°C° 0 mm 3 mps 749 mmHg 64%
    08:00 +11°C° 0 mm 4 mps 749 mmHg 63%
    09:00 +10°C° 0 mm 5 mps 749 mmHg 63%
    10:00 +10°C° 0 mm 6 mps 749 mmHg 62%
    11:00 +11°C° 0 mm 6 mps 749 mmHg 60%
    12:00 +12°C° 0 mm 5 mps 749 mmHg 57%
    13:00 +12°C° 0 mm 5 mps 749 mmHg 55%
    14:00 +12°C° 0 mm 4 mps 749 mmHg 54%
    15:00 +12°C° 0 mm 3 mps 749 mmHg 54%
    16:00 +13°C° 0 mm 2 mps 749 mmHg 54%
    17:00 +11°C° 0 mm 4 mps 749 mmHg 56%
    18:00 +9°C° 0 mm 6 mps 750 mmHg 57%
    19:00 +9°C° 0 mm 8 mps 751 mmHg 59%
    20:00 +7°C° 0 mm 8 mps 752 mmHg 55%
    21:00 +7°C° 0 mm 9 mps 753 mmHg 50%
    22:00 +6°C° 0 mm 9 mps 753 mmHg 46%
    23:00 +5°C° 0 mm 9 mps 754 mmHg 48%

    21 Octubre, Lunes

    Tiempo Temperatura Precipitaciones Viento Presión Humedad
    00:00 +3°C° 0 mm 10 mps 755 mmHg 50%
    01:00 +2°C° 0 mm 10 mps 755 mmHg 52%
    02:00 +2°C° 0 mm 9 mps 755 mmHg 56%
    03:00 +2°C° 0 mm 7 mps 756 mmHg 61%
    04:00 +1°C° 0 mm 6 mps 756 mmHg 65%
    05:00 +3°C° 0 mm 7 mps 756 mmHg 58%
    06:00 +4°C° 0 mm 7 mps 757 mmHg 50%
    07:00 +5°C° 0 mm 8 mps 757 mmHg 43%
    08:00 +6°C° 0 mm 8 mps 757 mmHg 40%
    09:00 +9°C° 0 mm 8 mps 757 mmHg 36%
    10:00 +10°C° 0 mm 8 mps 757 mmHg 33%
    11:00 +11°C° 0 mm 8 mps 757 mmHg 33%
    12:00 +11°C° 0 mm 8 mps 757 mmHg 32%
    13:00 +12°C° 0 mm 8 mps 757 mmHg 31%
    14:00 +12°C° 0 mm 7 mps 756 mmHg 31%
    15:00 +12°C° 0 mm 7 mps 756 mmHg 31%
    16:00 +14°C° 0 mm 6 mps 756 mmHg 31%
    17:00 +13°C° 0 mm 5 mps 756 mmHg 36%
    18:00 +11°C° 0 mm 4 mps 757 mmHg 40%
    19:00 +10°C° 0 mm 3 mps 757 mmHg 44%
    20:00 +10°C° 0 mm 3 mps 757 mmHg 46%
    21:00 +10°C° 0 mm 3 mps 757 mmHg 47%
    22:00 +9°C° 0 mm 3 mps 757 mmHg 49%
    23:00 +9°C° 0 mm 3 mps 757 mmHg 49%

    22 Octubre, Martes

    Tiempo Temperatura Precipitaciones Viento Presión Humedad
    00:00 +8°C° 0 mm 4 mps 757 mmHg 49%
    01:00 +8°C° 0 mm 5 mps 757 mmHg 49%
    02:00 +8°C° 0 mm 5 mps 756 mmHg 51%
    03:00 +7°C° 0 mm 5 mps 756 mmHg 53%
    04:00 +7°C° 0 mm 5 mps 756 mmHg 54%
    05:00 +8°C° 0 mm 5 mps 756 mmHg 52%
    06:00 +9°C° 0 mm 5 mps 756 mmHg 50%
    07:00 +9°C° 0 mm 5 mps 755 mmHg 49%
    08:00 +11°C° 0 mm 6 mps 755 mmHg 44%
    09:00 +13°C° 0 mm 6 mps 755 mmHg 39%
    10:00 +15°C° 0 mm 7 mps 754 mmHg 34%
    11:00 +15°C° 0 mm 8 mps 754 mmHg 33%
    12:00 +16°C° 0 mm 9 mps 754 mmHg 32%
    13:00 +17°C° 0 mm 10 mps 754 mmHg 31%
    14:00 +14°C° 0 mm 11 mps 755 mmHg 37%
    15:00 +12°C° 0 mm 11 mps 755 mmHg 43%
    16:00 +10°C° 0 mm 12 mps 755 mmHg 48%
    17:00 +8°C° 0 mm 10 mps 756 mmHg 50%
    18:00 +7°C° 0 mm 8 mps 757 mmHg 51%
    19:00 +6°C° 0 mm 7 mps 758 mmHg 52%
    20:00 +5°C° 0 mm 6 mps 759 mmHg 54%
    21:00 +6°C° 0 mm 5 mps 760 mmHg 56%
    22:00 +5°C° 0 mm 4 mps 760 mmHg 58%
    23:00 +4°C° 0 mm 4 mps 760 mmHg 61%
    Mostrar más